sat.trackr.live / text

‹ back to catalog

FLOCK 4Q-35

NORAD 58309 · 2023-174BF

PAYLOAD ACTIVE UNKNOWN

§ Identity

Operator
Country
US
Launch date
2023-11-11
Launch site
AFWTR
Launch vehicle
Mass (kg)
RCS (m²)

Purposes: earth_obs

External: N2YO · Heavens-Above · Gunter

§ Orbital elements

Epoch: 2026-05-25T04:53:04.111584Z

Period
92.60 min
Inclination
97.3877°
Eccentricity
0.0005590
Mean motion
15.55087339 rev/d
Perigee alt
398.1 km
Apogee alt
405.7 km
Semi-major
6,780.0 km
B*
4.9889e-4
RAAN
236.5066°
Arg perigee
212.4737°
Mean anomaly
147.6174°
Rev number
14,223

§ Raw data

FLOCK 4Q-351 58309U 23174BF  26145.20351981  .00033561  00000+0  49889-3 0  99972 58309  97.3877 236.5066 0005590 212.4737 147.6174 15.55087339142239

JSON: /api/v1/satellites/58309 · /tle

For live sub-satellite position, see the globe view (requires WebGL).

§ Visibility from observer

Set your observer location to see the next 7 days of passes ≥ 10°. The values pass through the URL so the page stays shareable.

No JS? Fill the form by hand. The geolocation button needs JavaScript.